Regional Weather Roundup
Issued by NWS Cleveland, OH

Home | Current Version | Previous Version | Text Only | Print | Product List | Glossary On
Versions: 1 2 3 4 5 6 7 8 9 10 11 12 13 14 15 16 17 18 19 20 21 22 23 24 25 26 27 28 29 30 31 32 33 34 35 36 37 38 39 40 41 42 43 44 45 46 47 48 49 50
152
ASUS41 KCLE 280302
RWRCLE
OHIO REGIONAL WEATHER ROUNDUP
NATIONAL WEATHER SERVICE CLEVELAND, OH
1100 PM EDT THU JUL 27 2017

NOTE: "FAIR" INDICATES FEW OR NO CLOUDS BELOW 12,000 FEET WITH NO
SIGNIFICANT WEATHER AND/OR OBSTRUCTIONS TO VISIBILITY.

OHZ001>008-015>018-024>027-034-035-043-044-280400-
   NORTHWEST OHIO

CITY           SKY/WX    TMP DP  RH WIND       PRES   REMARKS
DEFIANCE       CLEAR     72  66  81 E3        29.90S
FINDLAY        MOCLDY    75  67  76 NE6       29.89S
TOLEDO EXPRESS CLEAR     72  67  84 NE8       29.91R
TOLEDO EXEC    PTCLDY    74  69  85 NE7       29.92R
LIMA           CLOUDY    72  72 100 CALM      29.90R
$$

OHZ009>014-019>023-028>033-038-089-280400-
   NORTHEAST OHIO

CITY           SKY/WX    TMP DP  RH WIND       PRES   REMARKS
CLE-HOPKINS    PTCLDY    74  67  78 N7        29.92R
CLE-LAKEFRONT  CLEAR     74  65  73 N9        29.89S
CUY CO. ARPT   CLEAR     68  63  83 CALM      29.92R
LORAIN-ELYRIA  CLEAR     65  59  81 N5        29.91S
ASHTABULA      CLEAR     66  65  96 CALM      29.92S
AKRON-CANTON   PTCLDY    71  67  87 CALM      29.91F
WOOSTER        CLEAR     67  67 100 CALM      29.92S FOG
MANSFIELD      CLOUDY    70  70 100 N3        29.92S FOG
YOUNGSTOWN     PTCLDY    71  66  84 NE8       29.90F
$$

OHZ042-051>053-060>062-070>072-077>081-280400-
  SOUTHWEST OHIO

CITY           SKY/WX    TMP DP  RH WIND       PRES   REMARKS
CINC-COVINGTON CLOUDY    74  74 100 CALM      29.88S
CINC-LUNKEN    CLOUDY    74  74 100 CALM      29.88S
HAMILTON       CLOUDY    74  74 100 CALM      29.88S
DAYTON         CLOUDY    74  72  93 NW5       29.90R
WRIGHT-PAT AFB NOT AVBL
DAYTON GENERAL CLOUDY    74  71  91 CALM      29.88S
WILMINGTON     CLOUDY    74  74 100 NW6       29.88S
$$

OHZ036-037-039>041-045>050-054>059-063>069-073>076-082>088-280400-
  CENTRAL AND SOUTHEAST OHIO

CITY           SKY/WX    TMP DP  RH WIND       PRES   REMARKS
COLUMBUS       CLOUDY    71  71 100 NE6       29.88S
OSU AIRPORT    CLEAR     69  69 100 NE3       29.88F
BOLTON FIELD   CLOUDY    71  70  99 NE3       29.89S
RICKENBACK AFB CLOUDY    70  70 100 NE6       29.86F
NEWARK         CLOUDY    71  69  93 NE5       29.88F
MARION         CLOUDY    70  67  90 NE3       29.90F
LANCASTER      CLOUDY    71  70  96 NE3       29.88S
ZANESVILLE     CLOUDY    71  69  93 NE5       29.89F
NEW PHILLY     NOT AVBL
$$




USA.gov is the U.S. government's official web portal to all federal, state and local government web resources and services.